{"data":{"norad_id":42806,"intl_designator":"2017-039D","name":"IRIDIUM 115","alt_names":[],"object_type":"PAYLOAD","status":"ACTIVE","operator":null,"country":"US","launch_date":"2017-06-25","launch_site_code":"AFWTR","launch_vehicle":null,"mission":null,"orbit_class":"UNKNOWN","rcs_meters":null,"size_class":null,"mass_kg":null,"dimensions":null,"purposes":["comms"],"wikipedia_slug":null,"has_3d_model":false,"image_url":null,"decayed_at":null,"tle_current":{"epoch":"2026-05-25T00:45:13.027392Z","epoch_age_seconds":76371,"freshness":"FRESH","line1":"1 42806U 17039D   26145.03140078  .00000009  00000+0 -34784-5 0  9991","line2":"2 42806  86.4484 331.7734 0002104  82.2936 277.8503 14.43280347470921","mean_motion":14.43280347,"eccentricity":0.0002104,"inclination_deg":86.4484,"raan_deg":331.7734,"arg_perigee_deg":82.2936,"mean_anomaly_deg":277.8503,"bstar":-3.4784e-6,"rev_number":47092,"period_min":99.772715882481,"perigee_km":746.18145728599,"apogee_km":749.1800013865,"semimajor_km":7125.8177293362,"source":"CELESTRAK","updated_at":"2026-05-25T13:38:14.800280Z"}}}